User: anonymous
Location: Reading
(52.0000°N, 0.0000°E)
Time: 00:00:58
(UTC+01:00)
Language:

Iridium 41 - Orbit

View from above orbital plane
View from above orbital plane
View from above satellite
View from above satellite

Ground track
Ground track

The orbit data is extracted from the following two-line orbital elements,

1 25040U 97069B   14239.10354913  .00000057  00000-0  13439-4 0  9151
2 25040 086.3894 090.4352 0002039 115.0400 052.0957 14.34236132879381
Epoch (UTC): 27 August 2014 02:29:06
Eccentricity: 0.0002039
inclination: 86.3894°
perigee height: 776 km
apogee height: 779 km
right ascension of ascending node: 90.4352°
argument of perigee: 115.0400°
revolutions per day: 14.34236132
mean anomaly at epoch: 52.0957°
orbit number at epoch: 87938

The dashed part of the orbit path shows where the satellite is in the earth's shadow,  

DLR